Date_and_time,latitude,longitude,wind_speed,RelWindDirFrom,WindDirFrom,air_pressure,air_temperature,relative_humidity,Temp,platform_speed_wrt_ground,air_pressure_at_mean_sea_level,platform_orientation
2019-10-28 23:50,50.6304433333333,-96.9807633333333,9.5,13.5,172,986.82,-1.7,61,4.39,0.0,1014.85,0.0
2019-10-29 00:00,50.6304416666667,-96.9807616666667,8.8,12.0,159,986.81,-1.5,62,4.40,0.0,1014.82,90.0
2019-10-29 00:10,50.6304433333333,-96.9807733333333,9.5,13.3,173,986.77,-1.4,60,4.40,0.0,1014.78,90.0
2019-10-29 00:20,50.6304433333333,-96.98077,9.7,11.9,163,986.73,-1.4,61,4.39,0.0,1014.74,90.0
2019-10-29 00:30,50.630465,-96.9807633333333,8.9,12.0,145,986.67,-1.3,63,4.38,0.0,1014.66,90.0
2019-10-29 00:40,50.630435,-96.9807633333333,10.0,14.2,148,986.65,-1.4,63,4.37,0.0,1014.64,90.0
2019-10-29 00:50,50.6304383333333,-96.9807666666667,9.4,13.0,151,986.68,-1.4,64,4.37,0.0,1014.67,90.0
2019-10-29 01:00,50.6304366666667,-96.980765,9.1,12.5,173,986.67,-1.4,63,4.36,0.0,1014.66,0.0
2019-10-29 01:10,50.6304366666667,-96.9807666666667,7.6,10.8,194,986.68,-1.5,62,4.37,0.0,1014.68,0.0
2019-10-29 01:20,50.6304383333333,-96.980765,6.5,8.6,198,986.66,-1.5,62,4.38,0.0,1014.65,0.0
2019-10-29 01:30,50.6304383333333,-96.980765,6.2,7.6,198,986.62,-1.6,62,4.38,0.0,1014.61,0.0
2019-10-29 01:40,50.6304366666667,-96.9807566666667,6.9,9.2,193,986.57,-1.7,66,4.37,0.0,1014.57,0.0
2019-10-29 01:50,50.63044,-96.98076,4.8,6.2,197,986.47,-2.0,68,4.37,0.0,1014.48,0.0
2019-10-29 02:00,50.6304383333333,-96.9807616666667,4.1,5.2,210,986.51,-2.0,69,4.32,0.0,1014.51,0.0
2019-10-29 02:10,50.6304366666667,-96.9807583333333,3.2,4.6,234,986.56,-2.0,70,4.30,0.0,1014.56,0.0
2019-10-29 02:20,50.6304366666667,-96.9807583333333,3.3,4.7,242,986.56,-2.1,70,4.27,0.0,1014.56,0.0
2019-10-29 02:30,50.6304366666667,-96.9807583333333,3.2,4.0,249,986.61,-2.2,71,4.26,0.0,1014.62,0.0
2019-10-29 02:40,50.6304333333333,-96.980745,3.0,3.9,256,986.66,-2.3,73,4.24,0.0,1014.68,0.0
2019-10-29 02:50,50.6304416666667,-96.9807533333333,2.8,4.2,270,986.67,-2.3,75,4.24,0.0,1014.69,0.0
2019-10-29 03:00,50.6304383333333,-96.9807516666667,2.3,3.4,285,986.63,-2.3,76,4.25,0.0,1014.66,90.0
2019-10-29 03:10,50.63044,-96.980755,2.0,2.9,278,986.65,-2.3,77,4.27,0.0,1014.67,90.0
2019-10-29 03:20,50.63044,-96.9807566666667,2.5,4.1,303,986.58,-2.2,78,4.28,0.0,1014.60,90.0
2019-10-29 03:30,50.6304416666667,-96.98076,3.9,5.4,301,986.60,-2.2,78,4.30,0.0,1014.63,90.0
2019-10-29 03:40,50.6304433333333,-96.98076,3.6,5.2,296,986.66,-2.2,77,4.31,0.0,1014.71,90.0
2019-10-29 03:50,50.6304416666667,-96.98076,4.0,5.6,291,986.71,-2.3,77,4.32,0.0,1014.76,90.0
2019-10-29 04:00,50.630445,-96.9808133333333,3.2,4.5,291,986.71,-2.2,78,4.33,0.0,1014.76,280.0
2019-10-29 04:10,50.63045,-96.9807783333333,4.8,6.5,311,986.59,-2.1,77,4.33,0.0,1014.64,280.0
2019-10-29 04:20,50.6304516666667,-96.98076,4.4,6.4,310,986.54,-2.2,77,4.32,0.0,1014.59,280.0
2019-10-29 04:30,50.63045,-96.9807633333333,3.3,5.0,289,986.54,-2.2,77,4.32,0.0,1014.60,280.0
2019-10-29 04:40,50.63042,-96.9807666666667,3.5,4.7,273,986.60,-2.2,78,4.33,0.0,1014.66,280.0
2019-10-29 04:50,50.6304433333333,-96.9807666666667,3.6,5.7,279,986.63,-2.3,78,4.34,0.0,1014.69,280.0
2019-10-29 05:00,50.630445,-96.9807616666667,5.9,10.5,295,986.67,-2.3,79,4.34,0.0,1014.74,90.0
2019-10-29 05:10,50.63045,-96.9807683333333,8.8,11.6,302,986.66,-2.8,85,4.35,0.0,1014.75,90.0
2019-10-29 05:20,50.6304516666667,-96.98072,6.6,10.2,300,986.78,-3.0,87,4.35,0.0,1014.89,90.0
2019-10-29 05:30,50.6304383333333,-96.9807466666667,5.6,8.8,298,986.85,-3.1,88,4.28,0.0,1014.96,90.0
2019-10-29 05:40,50.6304416666667,-96.9807516666667,6.4,9.9,285,986.92,-3.2,89,4.26,0.0,1015.04,90.0
2019-10-29 05:50,50.6304433333333,-96.980755,6.8,9.6,290,986.99,-3.2,89,4.28,0.0,1015.11,90.0
2019-10-29 06:00,50.6304433333333,-96.9807583333333,7.7,11.3,289,987.02,-3.2,89,4.28,0.0,1015.13,270.0
2019-10-29 06:10,50.6304383333333,-96.9807516666667,7.9,11.5,291,987.05,-3.3,89,4.28,0.0,1015.18,270.0
2019-10-29 06:20,50.63044,-96.98076,8.0,11.6,291,987.03,-3.5,88,4.24,0.0,1015.16,270.0
2019-10-29 06:30,50.6304366666667,-96.9807866666667,7.0,11.2,291,987.13,-3.7,87,4.23,0.0,1015.28,270.0
2019-10-29 06:40,50.6304433333333,-96.9807616666667,7.2,11.7,291,987.12,-3.8,86,4.22,0.0,1015.28,270.0
2019-10-29 06:50,50.6304383333333,-96.98076,5.6,9.2,281,987.17,-4.0,85,4.20,0.0,1015.35,270.0
2019-10-29 07:00,50.6304333333333,-96.9807533333333,6.0,9.7,278,987.15,-4.1,86,4.20,0.0,1015.36,105.1
2019-10-29 07:10,50.6304366666667,-96.980755,5.3,8.1,281,987.15,-4.2,86,4.20,0.0,1015.37,105.1
2019-10-29 07:20,50.6304433333333,-96.980755,5.8,8.1,277,987.14,-4.3,86,4.21,0.0,1015.36,105.1
2019-10-29 07:30,50.6304416666667,-96.9807566666667,4.8,7.3,275,987.16,-4.4,86,4.21,0.0,1015.40,105.1
2019-10-29 07:40,50.6304416666667,-96.9807633333333,3.8,5.8,270,987.20,-4.4,87,4.20,0.0,1015.44,105.1
2019-10-29 07:50,50.6304416666667,-96.9807683333333,4.4,6.6,268,987.20,-4.4,88,4.15,0.0,1015.44,105.1
2019-10-29 08:00,50.6304416666667,-96.9807666666667,5.0,7.8,262,987.21,-4.5,87,4.14,0.0,1015.46,270.0
2019-10-29 08:10,50.6304416666667,-96.980765,5.1,6.9,240,987.33,-4.5,88,4.13,0.0,1015.60,270.0
2019-10-29 08:20,50.6304416666667,-96.980765,5.1,7.0,234,987.41,-4.4,90,4.12,0.0,1015.68,270.0
2019-10-29 08:30,50.6304416666667,-96.980765,5.4,7.2,236,987.43,-4.3,90,4.10,0.0,1015.71,270.0
2019-10-29 08:40,50.6304416666667,-96.980765,5.6,7.4,234,987.40,-4.3,91,4.10,0.0,1015.68,270.0
2019-10-29 08:50,50.6304416666667,-96.980765,5.6,8.2,235,987.39,-4.3,92,4.10,0.0,1015.68,270.0
2019-10-29 09:00,50.6304416666667,-96.980765,6.4,8.8,241,987.42,-4.3,92,4.10,0.0,1015.72,270.0
2019-10-29 09:10,50.6304483333333,-96.9807666666667,5.7,8.1,244,987.45,-4.2,92,4.12,0.0,1015.75,270.0
2019-10-29 09:20,50.6304333333333,-96.9807616666667,6.3,8.9,245,987.50,-4.2,91,4.13,0.0,1015.80,270.0
2019-10-29 09:30,50.6304333333333,-96.9807566666667,6.0,10.1,252,987.59,-4.1,92,4.11,0.0,1015.89,270.0
2019-10-29 09:40,50.630435,-96.9807583333333,5.8,8.9,260,987.56,-4.1,92,4.10,0.0,1015.87,270.0
2019-10-29 09:50,50.6304216666667,-96.980705,5.5,10.7,269,987.56,-4.0,92,4.11,0.0,1015.85,270.0
2019-10-29 10:00,50.630435,-96.98081,6.1,8.7,267,987.58,-4.0,92,4.09,0.0,1015.88,277.8
2019-10-29 10:10,50.63044,-96.98078,5.9,8.9,261,987.69,-4.0,93,4.08,0.0,1016.00,277.8
2019-10-29 10:20,50.6304416666667,-96.9807683333333,5.3,8.1,263,987.73,-4.0,93,4.08,0.0,1016.03,277.8
2019-10-29 10:30,50.6304416666667,-96.9807666666667,5.4,10.1,267,987.72,-3.9,92,4.07,0.0,1016.01,277.8
2019-10-29 10:40,50.63044,-96.980765,5.6,9.2,278,987.72,-3.9,90,4.05,0.0,1016.01,277.8
2019-10-29 10:50,50.63044,-96.9807666666667,5.5,8.7,278,987.76,-3.9,89,4.05,0.0,1016.05,277.8
2019-10-29 11:00,50.63044,-96.9807683333333,4.2,7.1,271,987.83,-3.9,90,4.05,0.0,1016.12,90.0
2019-10-29 11:10,50.630445,-96.9807633333333,3.9,5.6,254,987.83,-4.0,90,4.05,0.0,1016.13,90.0
2019-10-29 11:20,50.6304466666667,-96.9807516666667,4.1,5.7,248,987.88,-4.0,90,4.06,0.0,1016.17,90.0
2019-10-29 11:30,50.6304466666667,-96.9807516666667,5.2,7.2,245,987.91,-4.1,88,4.08,0.0,1016.20,90.0
2019-10-29 11:40,50.630445,-96.9807566666667,5.3,7.7,249,987.90,-4.2,87,4.09,0.0,1016.20,90.0
2019-10-29 11:50,50.6304266666667,-96.9807583333333,5.2,7.3,240,987.86,-4.2,88,4.10,0.0,1016.15,90.0
2019-10-29 12:00,50.6304466666667,-96.9807733333333,5.9,8.9,239,987.87,-4.3,87,4.10,0.0,1016.17,347.4
2019-10-29 12:10,50.63045,-96.9807766666667,5.7,8.4,238,987.92,-4.2,86,4.10,0.0,1016.21,347.4
2019-10-29 12:20,50.6304466666667,-96.980775,6.7,12.2,244,987.90,-4.2,83,4.09,0.0,1016.18,347.4
2019-10-29 12:30,50.630445,-96.9807716666667,7.3,12.3,262,987.95,-4.0,80,4.08,0.0,1016.23,347.4
2019-10-29 12:40,50.630445,-96.98077,8.0,11.3,261,988.02,-4.0,77,4.06,0.0,1016.31,347.4
2019-10-29 12:50,50.630445,-96.98077,8.2,14.8,264,988.10,-3.9,74,4.04,0.0,1016.38,347.4
2019-10-29 13:00,50.630445,-96.9807666666667,9.4,13.7,263,988.12,-4.0,69,3.99,0.0,1016.41,80.0
2019-10-29 13:10,50.6304366666667,-96.9807566666667,8.2,12.4,266,988.19,-4.1,67,3.93,0.0,1016.49,80.0
2019-10-29 13:20,50.6304566666667,-96.9807766666667,8.3,13.6,269,988.19,-4.1,65,3.89,0.0,1016.49,80.0
2019-10-29 13:30,50.6304433333333,-96.98075,8.1,14.1,278,988.21,-4.2,64,3.87,0.0,1016.52,80.0
2019-10-29 13:40,50.630445,-96.9807516666667,8.4,12.8,288,988.23,-4.3,61,3.88,0.0,1016.55,80.0
2019-10-29 13:50,50.6304533333333,-96.9807483333333,8.6,13.5,280,988.35,-4.5,60,3.85,0.0,1016.69,80.0
2019-10-29 14:00,50.6304533333333,-96.9807516666667,7.3,11.2,279,988.48,-4.5,59,3.86,0.0,1016.82,48.3
2019-10-29 14:10,50.6304516666667,-96.9807716666667,7.2,10.9,290,988.43,-4.6,60,3.89,0.0,1016.77,48.3
2019-10-29 14:20,50.63044,-96.9807466666667,6.0,11.1,288,988.51,-4.6,60,3.89,0.0,1016.85,48.3
2019-10-29 14:30,50.6304433333333,-96.980755,5.0,7.9,267,988.66,-4.6,61,3.86,0.0,1016.99,48.3
2019-10-29 14:40,50.6304366666667,-96.98076,6.3,11.7,270,988.78,-4.7,60,3.84,0.0,1017.12,48.3
2019-10-29 14:50,50.6304366666667,-96.9807716666667,5.0,10.2,247,988.83,-4.7,62,3.81,0.0,1017.18,48.3
2019-10-29 15:00,50.6304383333333,-96.98076,6.2,10.5,256,988.83,-4.8,61,3.80,0.0,1017.18,119.2
2019-10-29 15:10,50.630445,-96.9807633333333,6.1,9.3,263,988.86,-4.8,62,3.80,0.0,1017.22,119.2
2019-10-29 15:20,50.6304483333333,-96.9807516666667,5.9,9.3,266,988.86,-4.9,63,3.81,0.0,1017.23,119.2
2019-10-29 15:30,50.6304433333333,-96.98076,6.3,9.9,253,988.83,-4.9,65,3.83,0.0,1017.21,119.2
2019-10-29 15:40,50.6304416666667,-96.98076,7.2,10.7,253,988.91,-5.0,67,3.84,0.0,1017.30,119.2
2019-10-29 15:50,50.630445,-96.98077,6.6,9.6,255,988.89,-5.1,68,3.86,0.0,1017.28,119.2
2019-10-29 16:00,50.6304433333333,-96.980765,7.6,11.8,246,988.94,-5.2,73,3.88,0.0,1017.35,0.0
2019-10-29 16:10,50.63044,-96.9807633333333,8.0,10.8,238,988.93,-5.3,75,3.89,0.0,1017.35,0.0
2019-10-29 16:20,50.6304316666667,-96.9807716666667,7.4,10.5,231,988.90,-5.2,78,3.87,0.0,1017.31,0.0
2019-10-29 16:30,50.6304366666667,-96.9807633333333,7.6,10.8,234,988.93,-5.2,80,3.83,0.0,1017.35,0.0
2019-10-29 16:40,50.6304383333333,-96.9807616666667,7.7,11.6,230,988.99,-5.1,80,3.80,0.0,1017.40,0.0
2019-10-29 16:50,50.6304366666667,-96.9807616666667,9.5,16.3,235,989.07,-4.8,74,3.80,0.0,1017.47,0.0
2019-10-29 17:00,50.6304366666667,-96.9807583333333,9.9,13.9,239,989.19,-5.1,71,3.80,0.0,1017.61,203.5
2019-10-29 17:10,50.6304366666667,-96.9807566666667,9.9,15.0,250,989.14,-5.0,71,3.79,0.0,1017.56,203.5
2019-10-29 17:20,50.6304366666667,-96.9807566666667,10.3,14.2,248,989.21,-5.2,77,3.78,0.0,1017.64,203.5
2019-10-29 17:30,50.6304366666667,-96.9807566666667,9.0,14.4,252,989.29,-5.3,81,3.77,0.0,1017.74,203.5
2019-10-29 17:40,50.6304366666667,-96.9807566666667,7.2,10.7,252,989.34,-5.4,77,3.75,0.0,1017.79,203.5
2019-10-29 17:50,50.6304516666667,-96.980805,8.1,12.6,250,989.37,-5.2,77,3.76,0.0,1017.82,203.5
2019-10-29 18:00,50.6304433333333,-96.9807633333333,8.3,13.1,257,989.39,-5.3,78,3.78,0.0,1017.86,270.0
2019-10-29 18:10,50.63045,-96.9807733333333,8.5,12.0,239,989.38,-5.5,83,3.78,0.0,1017.86,270.0
2019-10-29 18:20,50.6304433333333,-96.98076,8.7,13.7,243,989.39,-5.7,87,3.78,0.0,1017.88,270.0
2019-10-29 18:30,50.6304416666667,-96.98076,9.5,13.6,252,989.41,-5.7,84,3.79,0.0,1017.89,270.0
2019-10-29 18:40,50.6304383333333,-96.9807583333333,9.8,14.4,240,989.44,-5.9,84,3.77,0.0,1017.91,270.0
2019-10-29 18:50,50.6304383333333,-96.98076,8.3,12.6,234,989.34,-5.4,78,3.77,0.0,1017.80,270.0
2019-10-29 19:00,50.630435,-96.9807533333333,9.2,13.4,232,989.27,-4.7,72,3.77,0.0,1017.68,119.2
2019-10-29 19:10,50.6304616666667,-96.9807833333333,10.0,20.6,245,989.32,-4.8,72,3.78,0.0,1017.76,119.2
2019-10-29 19:20,50.6304333333333,-96.9807483333333,10.1,14.6,236,989.40,-5.3,76,3.79,0.0,1017.86,119.2
2019-10-29 19:30,50.630435,-96.980755,9.7,13.2,224,989.35,-5.1,74,3.79,0.0,1017.80,119.2
2019-10-29 19:40,50.630435,-96.98076,10.2,13.3,230,989.32,-4.8,70,3.77,0.0,1017.76,119.2
2019-10-29 19:50,50.6304333333333,-96.9807633333333,9.6,14.1,221,989.28,-4.5,68,3.79,0.0,1017.69,119.2
2019-10-29 20:00,50.6304333333333,-96.9807633333333,12.4,16.8,231,989.27,-4.1,59,3.78,0.0,1017.68,228.3
2019-10-29 20:10,50.630425,-96.9807583333333,11.4,16.5,243,989.30,-4.0,58,3.77,0.0,1017.71,228.3
2019-10-29 20:20,50.6304283333333,-96.980765,10.0,15.5,241,989.34,-3.8,59,3.78,0.0,1017.75,228.3
2019-10-29 20:30,50.6304283333333,-96.980765,11.7,16.8,246,989.37,-4.2,64,3.79,0.0,1017.81,228.3
2019-10-29 20:40,50.6304266666667,-96.9807616666667,9.7,14.1,248,989.47,-4.7,69,3.78,0.0,1017.91,228.3
2019-10-29 20:50,50.630445,-96.9807583333333,7.5,12.8,265,989.45,-5.0,78,3.75,0.0,1017.86,228.3
2019-10-29 21:00,50.630435,-96.98077,6.6,11.5,246,989.47,-5.1,78,3.72,0.0,1017.90,142.0
2019-10-29 21:10,50.630435,-96.9807666666667,5.8,8.7,249,989.48,-4.7,73,3.72,0.0,1017.92,142.0
2019-10-29 21:20,50.6304033333333,-96.980775,9.0,15.1,247,989.61,-4.6,71,3.72,0.0,1018.04,142.0
2019-10-29 21:30,50.63042,-96.980775,9.2,13.1,253,989.68,-5.0,77,3.73,0.0,1018.12,142.0
2019-10-29 21:40,50.630455,-96.9807683333333,7.8,12.1,235,989.75,-4.6,78,3.75,0.0,1018.14,142.0
2019-10-29 21:50,50.6304366666667,-96.9807616666667,8.5,13.5,247,989.83,-4.4,74,3.76,0.0,1018.19,142.0
2019-10-29 22:00,50.630435,-96.9807583333333,7.8,12.6,248,989.85,-5.2,77,3.75,0.0,1018.25,270.0
2019-10-29 22:10,50.630435,-96.9807566666667,9.0,11.5,238,989.94,-5.2,75,3.76,0.0,1018.34,270.0
2019-10-29 22:20,50.6304333333333,-96.9807566666667,6.9,10.4,242,989.98,-5.1,77,3.77,0.0,1018.39,270.0
2019-10-29 22:30,50.6304333333333,-96.9807583333333,5.9,10.2,267,990.02,-5.1,75,3.76,0.0,1018.46,270.0
2019-10-29 22:40,50.630435,-96.9807583333333,6.0,10.0,246,990.04,-5.2,75,3.73,0.0,1018.51,270.0
2019-10-29 22:50,50.630435,-96.9807583333333,6.5,9.9,246,990.08,-5.4,77,3.72,0.0,1018.56,270.0
2019-10-29 23:00,50.630435,-96.98076,6.0,8.8,241,990.09,-5.6,80,3.72,0.0,1018.56,48.3
2019-10-29 23:10,50.630435,-96.98076,5.7,8.4,234,990.14,-5.6,81,3.73,0.0,1018.61,48.3
2019-10-29 23:20,50.6304316666667,-96.98076,5.6,7.5,225,990.22,-5.5,83,3.71,0.0,1018.71,48.3
2019-10-29 23:30,50.6304416666667,-96.98076,5.8,7.2,219,990.31,-5.6,86,3.70,0.0,1018.78,48.3
2019-10-29 23:40,50.6304333333333,-96.9807566666667,5.8,8.7,219,990.44,-5.6,87,3.71,0.0,1018.91,48.3
2019-10-29 23:50,50.6304333333333,-96.9807583333333,5.5,7.4,221,990.53,-5.7,87,3.69,0.0,1019.04,48.3
